CZ-6A DEB, 56248

Orbit data source: Space-Track

CZ-6A DEB, 56248 is space debris in SSO originally from a launch on Fri, 11 Nov 2022 UTC launched from the Taiyaun Space Center, China (TSC). Debris objects in space refer to the collection of defunct objects orbiting the Earth. Examples of debris include non-operational satellites, rocket bodies, and fragments generated from explosions, collisions, or faulty payload assembly.

Loading next visibility...
Identifier
56248, 2022-151ABQ
Orbit
SSO
Country
Flag of CNCN / PRC
Related business
Manufacturer
SAST
Mission
Spacecraft
Bus & Motor
Unknown
Mass
Unknown
Launch date (UTC)
2022-11-11 (3 years ago)
Launch vehicle
Unknown
Launch site
Taiyaun Space Center, China (TSC)
Object type
Payload
Rocket body
Debris
Shape & HBR
Unknown shape, 0.1 m
Radar Cross Section
Small (<0.1 m²)

Expand to show TLE details & history
Last TLE update: 12 hours ago

TLE from 12 hours ago
0 CZ-6A DEB
1 56248U 22151ABQ 25355.18766153  .00000274  00000-0  19866-3 0  9999
2 56248  98.8498 339.3106 0075737 152.3769 208.1453 14.03024647141178
Epoch: 2025-12-21T04:30Z
TLE epoch observation values (Epoch: 2025-12-21T04:30:13.956Z)
Latitude
-0.00001°
Longitude
-178.25125°
Altitude
934.822 km
Speed
7.36 km/s
True Right ascension
22h 37m 14s
True Declination
0° 00' 00"
Sunlit
Object was in daylight at epoch
Visualization orbit readout
Latitude
Unknown
Longitude
Unknown
Altitude
Unknown
Speed
Unknown
Apparent Right ascension
Unknown
Apparent Declination
Unknown
Sunlit
N/A
Visualization observer readout
Local Sidereal Time
15:52:01
Azimuth
Unknown
Elevation
Unknown
Doppler factor
Unknown
Orbital elements
Apogee altitude
935.503 km
Perigee altitude
825.553 km
Semi-major axis
7,258.665 km
Eccentricity
0.00757
Inclination
98.8498°
RAAN
339.3106°
Arg. of periapsis
152.3769°
True anomaly
207.73931°
Mean anomaly
208.1453°
Eccentric anomaly
207.94197°
Mean motion
3.5096 °/min
Orbital period
102.58 mins
BSTAR
0.00019866
Loading maneuver chart data...
Computing Atmospheric mass density...
Loading historical data...
Loading historical data...
Loading historical data...
Loading historical data...
Loading historical data...
Loading historical data...
Loading historical data...

Documentation

Showing up to 5 results
|